WHSE22 YBOK-YBOK

Flight info

Callsign WHSE22
Flight time 0h 1m
Altitude 3000
Route DCT
Aircraft H60/M-SGRWY/S

Departure

Time 2026-04-19 09:11
Airport Oakey Army Aviation Centre (YBOK)

Arrival

Time 2026-04-19 09:13
Airport Oakey Army Aviation Centre (YBOK)
Time Latitude Longitude Altitude Speed Heading
2026-04-19 08:45 -27.41250 151.72991 1335 ft 0 kts 189°
2026-04-19 09:00 -27.41255 151.72990 1334 ft 3 kts 190°
2026-04-19 09:01 -27.41324 151.72935 1337 ft 9 kts 319°
2026-04-19 09:01 -27.41287 151.72890 1334 ft 6 kts 336°
2026-04-19 09:01 -27.41265 151.72882 1333 ft 1 kts 317°
2026-04-19 09:01 -27.41264 151.72881 1334 ft 0 kts 316°
2026-04-19 09:02 -27.41255 151.72866 1334 ft 6 kts 289°
2026-04-19 09:02 -27.41231 151.72812 1334 ft 10 kts 355°
2026-04-19 09:02 -27.41150 151.72826 1334 ft 14 kts
2026-04-19 09:02 -27.41054 151.72840 1334 ft 1 kts 12°
2026-04-19 09:03 -27.41054 151.72841 1334 ft 0 kts 13°
2026-04-19 09:04 -27.41053 151.72841 1333 ft 3 kts 19°
2026-04-19 09:04 -27.41007 151.72853 1333 ft 10 kts 13°
2026-04-19 09:04 -27.40973 151.72890 1333 ft 6 kts 101°
2026-04-19 09:04 -27.40977 151.72910 1334 ft 1 kts 101°
2026-04-19 09:05 -27.41005 151.73056 1354 ft 39 kts 100°
2026-04-19 09:05 -27.41057 151.73474 1442 ft 65 kts 97°
2026-04-19 09:05 -27.41062 151.74020 1652 ft 79 kts 86°
2026-04-19 09:05 -27.40949 151.74704 1618 ft 99 kts 77°
2026-04-19 09:06 -27.40760 151.75469 1535 ft 91 kts 74°
2026-04-19 09:06 -27.40594 151.76049 1857 ft 72 kts 71°
2026-04-19 09:06 -27.40381 151.76731 1679 ft 107 kts 70°
2026-04-19 09:06 -27.40127 151.77512 1596 ft 101 kts 70°
2026-04-19 09:07 -27.39912 151.78244 1550 ft 96 kts 72°
2026-04-19 09:07 -27.39660 151.78893 1603 ft 85 kts 55°
2026-04-19 09:07 -27.39323 151.79328 1784 ft 64 kts 45°
2026-04-19 09:07 -27.39037 151.79644 1867 ft 57 kts 46°
2026-04-19 09:08 -27.38773 151.80008 1848 ft 63 kts 52°
2026-04-19 09:08 -27.38512 151.80437 1817 ft 68 kts 56°
2026-04-19 09:08 -27.38261 151.80875 1836 ft 62 kts 57°
2026-04-19 09:08 -27.38044 151.81255 1889 ft 54 kts 57°
2026-04-19 09:09 -27.37861 151.81587 1895 ft 48 kts 58°
2026-04-19 09:09 -27.37743 151.81926 1869 ft 46 kts 68°
2026-04-19 09:09 -27.37693 151.82281 1814 ft 46 kts 80°
2026-04-19 09:09 -27.37708 151.82626 1790 ft 40 kts 88°
2026-04-19 09:10 -27.37730 151.82836 1732 ft 16 kts 79°
2026-04-19 09:10 -27.37722 151.82891 1653 ft 16 kts 57°
2026-04-19 09:10 -27.37561 151.82966 1705 ft 38 kts 30°
2026-04-19 09:10 -27.37249 151.83170 1748 ft 56 kts 19°
2026-04-19 09:11 -27.37022 151.83155 1727 ft 15 kts 347°
2026-04-19 09:11 -27.36953 151.83201 1737 ft 10 kts 29°
2026-04-19 09:11 -27.36786 151.83194 1831 ft 43 kts 11°
2026-04-19 09:11 -27.36375 151.83321 2060 ft 75 kts 15°
2026-04-19 09:12 -27.35899 151.83596 1913 ft 77 kts 53°
2026-04-19 09:12 -27.35928 151.84192 1885 ft 71 kts 95°
2026-04-19 09:12 -27.36009 151.84701 1939 ft 62 kts 97°
2026-04-19 09:12 -27.36277 151.85060 1935 ft 61 kts 142°
2026-04-19 09:13 -27.36639 151.85069 1928 ft 44 kts 167°
2026-04-19 09:13 -27.36994 151.85058 1777 ft 75 kts 171°
2026-04-19 09:13 -27.37638 151.85001 1754 ft 101 kts 183°
2026-04-19 09:13 -27.38332 151.84888 1976 ft 100 kts 186°
2026-04-19 09:14 -27.39009 151.84736 2241 ft 100 kts 188°
2026-04-19 09:14 -27.39698 151.84539 2419 ft 104 kts 190°
2026-04-19 09:14 -27.40414 151.84295 2508 ft 110 kts 193°
2026-04-19 09:14 -27.41155 151.84004 2516 ft 115 kts 196°
2026-04-19 09:15 -27.41907 151.83640 2467 ft 120 kts 208°
2026-04-19 09:15 -27.42254 151.83137 2284 ft 130 kts 243°
2026-04-19 09:15 -27.41652 151.81402 1879 ft 118 kts 324°
2026-04-19 09:16 -27.40703 151.80925 2044 ft 107 kts 335°
2026-04-19 09:16 -27.40259 151.80695 2204 ft 101 kts 334°
2026-04-19 09:16 -27.39652 151.80373 2515 ft 92 kts 334°
2026-04-19 09:16 -27.38928 151.79971 2965 ft 84 kts 333°
2026-04-19 09:17 -27.38581 151.79772 3152 ft 87 kts 332°
2026-04-19 09:17 -27.37947 151.79408 2635 ft 119 kts 333°
2026-04-19 09:17 -27.37172 151.78960 2036 ft 122 kts 331°
2026-04-19 09:17 -27.36482 151.78520 1913 ft 105 kts 328°
2026-04-19 09:18 -27.35918 151.78120 1962 ft 87 kts 324°
2026-04-19 09:18 -27.35454 151.77754 1934 ft 77 kts 320°
2026-04-19 09:18 -27.35050 151.77396 1851 ft 71 kts 316°
2026-04-19 09:18 -27.34685 151.77038 1748 ft 72 kts 315°
2026-04-19 09:19 -27.34147 151.76647 1690 ft 109 kts 329°
2026-04-19 09:19 -27.33423 151.76268 1682 ft 117 kts 335°
2026-04-19 09:19 -27.32697 151.75917 1804 ft 110 kts 336°
2026-04-19 09:19 -27.32008 151.75597 2004 ft 105 kts 337°
2026-04-19 09:20 -27.31347 151.75302 2266 ft 100 kts 338°
2026-04-19 09:20 -27.30709 151.75032 2554 ft 96 kts 339°
2026-04-19 09:20 -27.30085 151.74784 2831 ft 94 kts 341°
2026-04-19 09:20 -27.29444 151.74518 3040 ft 108 kts 338°
2026-04-19 09:21 -27.28640 151.74151 2700 ft 138 kts 338°
2026-04-19 09:21 -27.27757 151.73746 2370 ft 131 kts 338°
2026-04-19 09:21 -27.26940 151.73373 2325 ft 125 kts 338°
2026-04-19 09:21 -27.26157 151.72982 2292 ft 122 kts 335°
2026-04-19 09:22 -27.25409 151.72563 2285 ft 121 kts 332°
2026-04-19 09:22 -27.24707 151.72117 2186 ft 110 kts 325°
2026-04-19 09:22 -27.24258 151.71472 2083 ft 102 kts 291°
2026-04-19 09:22 -27.24136 151.70692 2033 ft 101 kts 276°
2026-04-19 09:23 -27.24007 151.69939 1975 ft 92 kts 279°
2026-04-19 09:23 -27.23881 151.69306 1909 ft 74 kts 279°
2026-04-19 09:23 -27.23793 151.68787 1787 ft 54 kts 268°
2026-04-19 09:23 -27.23836 151.68523 1594 ft 30 kts 243°
2026-04-19 09:24 -27.23900 151.68290 1470 ft 29 kts 229°
2026-04-19 09:24 -27.23940 151.68173 1421 ft 6 kts 208°
2026-04-19 09:24 -27.23956 151.68168 1402 ft 1 kts 182°
2026-04-19 09:24 -27.23957 151.68168 1402 ft 0 kts 181°
2026-04-19 09:31 -27.24003 151.68175 1444 ft 37 kts 169°
2026-04-19 09:31 -27.24670 151.68194 1638 ft 131 kts 183°
2026-04-19 09:31 -27.25500 151.68034 1747 ft 109 kts 187°
2026-04-19 09:31 -27.26219 151.67922 1875 ft 101 kts 183°
2026-04-19 09:32 -27.26910 151.67850 2015 ft 102 kts 184°
2026-04-19 09:32 -27.27626 151.67741 1984 ft 102 kts 183°
2026-04-19 09:32 -27.28308 151.67674 1980 ft 96 kts 180°
2026-04-19 09:32 -27.28965 151.67648 1992 ft 93 kts 176°
2026-04-19 09:33 -27.29610 151.67661 2010 ft 92 kts 173°
2026-04-19 09:33 -27.30233 151.67711 2056 ft 88 kts 171°
2026-04-19 09:33 -27.30836 151.67817 2095 ft 86 kts 159°
2026-04-19 09:33 -27.31261 151.68275 2070 ft 90 kts 117°
2026-04-19 09:34 -27.31394 151.68981 2001 ft 94 kts 92°
2026-04-19 09:34 -27.31462 151.69724 1945 ft 95 kts 95°
2026-04-19 09:34 -27.31559 151.70435 1981 ft 89 kts 97°
2026-04-19 09:34 -27.31643 151.71111 2046 ft 86 kts 88°
2026-04-19 09:35 -27.31336 151.71657 2043 ft 87 kts 37°
2026-04-19 09:35 -27.30739 151.71821 1996 ft 92 kts
2026-04-19 09:35 -27.30084 151.71781 1976 ft 94 kts 356°
2026-04-19 09:35 -27.29453 151.71786 2044 ft 87 kts
2026-04-19 09:36 -27.28879 151.71826 2164 ft 82 kts
2026-04-19 09:36 -27.28308 151.71887 2251 ft 82 kts
2026-04-19 09:36 -27.27730 151.71931 2308 ft 84 kts
2026-04-19 09:36 -27.27133 151.71912 2332 ft 87 kts 356°
2026-04-19 09:37 -27.26522 151.71868 2344 ft 89 kts 357°
2026-04-19 09:37 -27.25896 151.71857 2338 ft 91 kts
2026-04-19 09:37 -27.25260 151.71856 2336 ft 91 kts 359°
2026-04-19 09:37 -27.24612 151.71835 2335 ft 96 kts 357°
2026-04-19 09:38 -27.23942 151.71792 2295 ft 97 kts 355°
2026-04-19 09:38 -27.23273 151.71727 2265 ft 95 kts 353°
2026-04-19 09:38 -27.22623 151.71642 2265 ft 93 kts 352°
2026-04-19 09:38 -27.22025 151.71393 2251 ft 94 kts 324°
2026-04-19 09:39 -27.21636 151.70813 2248 ft 93 kts 295°
2026-04-19 09:39 -27.21483 151.70113 2280 ft 93 kts 276°
2026-04-19 09:39 -27.21443 151.69393 2308 ft 94 kts 268°
2026-04-19 09:39 -27.21557 151.68690 2318 ft 92 kts 240°
2026-04-19 09:40 -27.22040 151.68259 2294 ft 90 kts 200°
2026-04-19 09:40 -27.22664 151.68120 2236 ft 92 kts 179°
2026-04-19 09:40 -27.23241 151.68077 2121 ft 70 kts 177°
2026-04-19 09:40 -27.23616 151.68042 1826 ft 37 kts 169°
2026-04-19 09:41 -27.23815 151.68050 1548 ft 25 kts 174°
2026-04-19 09:41 -27.23940 151.68167 1416 ft 15 kts 175°
2026-04-19 09:41 -27.23954 151.68188 1401 ft 0 kts 188°
2026-04-19 09:43 -27.24079 151.68183 1434 ft 59 kts 189°
2026-04-19 09:43 -27.24748 151.68132 1591 ft 119 kts 184°
2026-04-19 09:43 -27.25631 151.68056 1615 ft 132 kts 184°
2026-04-19 09:44 -27.26556 151.67997 1635 ft 133 kts 182°
2026-04-19 09:44 -27.27477 151.67927 1719 ft 132 kts 184°
2026-04-19 09:44 -27.28371 151.67820 1851 ft 132 kts 186°
2026-04-19 09:44 -27.29293 151.67692 1903 ft 135 kts 186°
2026-04-19 09:45 -27.30231 151.67555 1897 ft 137 kts 187°
2026-04-19 09:45 -27.31189 151.67404 1797 ft 140 kts 188°
2026-04-19 09:45 -27.32135 151.67235 1787 ft 133 kts 188°
2026-04-19 09:45 -27.33047 151.67104 1898 ft 133 kts 185°
2026-04-19 09:46 -27.33989 151.67009 1859 ft 137 kts 183°
2026-04-19 09:46 -27.34923 151.66970 1826 ft 130 kts 180°
2026-04-19 09:46 -27.35782 151.66937 1875 ft 119 kts 182°
2026-04-19 09:46 -27.36608 151.66887 1942 ft 119 kts 182°
2026-04-19 09:47 -27.37451 151.66861 1966 ft 123 kts 179°
2026-04-19 09:47 -27.38310 151.66957 1929 ft 123 kts 167°
2026-04-19 09:47 -27.39091 151.67313 1910 ft 118 kts 147°
2026-04-19 09:47 -27.39597 151.67977 1992 ft 111 kts 122°
2026-04-19 09:48 -27.39994 151.68746 1967 ft 119 kts 120°
2026-04-19 09:48 -27.40365 151.69578 1959 ft 118 kts 114°
2026-04-19 09:48 -27.40584 151.70482 1863 ft 124 kts 101°
2026-04-19 09:48 -27.40736 151.71442 1606 ft 120 kts 99°
2026-04-19 09:49 -27.40875 151.72281 1441 ft 97 kts 100°
2026-04-19 09:49 -27.40971 151.72872 1361 ft 52 kts 101°
2026-04-19 09:49 -27.41002 151.73080 1342 ft 16 kts 105°
2026-04-19 09:49 -27.41013 151.73143 1335 ft 6 kts 102°
2026-04-19 09:50 -27.41023 151.73192 1335 ft 8 kts 98°
2026-04-19 09:50 -27.41031 151.73262 1335 ft 10 kts 98°
2026-04-19 09:50 -27.41044 151.73353 1335 ft 14 kts 101°
2026-04-19 09:50 -27.41065 151.73470 1334 ft 10 kts 103°
2026-04-19 09:51 -27.41114 151.73485 1335 ft 8 kts 202°
2026-04-19 09:51 -27.41163 151.73472 1336 ft 7 kts 188°
2026-04-19 09:51 -27.41208 151.73464 1336 ft 6 kts 191°
2026-04-19 09:51 -27.41251 151.73455 1335 ft 6 kts 188°
2026-04-19 09:52 -27.41270 151.73425 1335 ft 5 kts 288°
2026-04-19 09:52 -27.41260 151.73386 1335 ft 5 kts 269°
2026-04-19 09:52 -27.41280 151.73369 1335 ft 4 kts 144°
2026-04-19 09:52 -27.41291 151.73401 1336 ft 5 kts 100°
2026-04-19 09:53 -27.41291 151.73402 1336 ft 0 kts 98°